Find Starlink 37655

NORAD ID: 69142 Int'l Des: 2026-110 Owner: SPXS Country: US Constellation: starlink operational
LEOCIRCULARRETROGRADE

現在のビュー

3D地球を読み込み中...

About Starlink 37655

Starlink 37655 (NORAD 69142) is a starlink constellation satellite (v2 mini) launched May 20, 2026 by SPXS of US. It operates in LEO, CIRCULAR, RETROGRADE orbit with a mass of 575.00 kg.

次回通過

Passes for default location (London). Set your location on the main map for personalized predictions.

高度履歴

Loading altitude history...

軌道要素

1 69142U 26110U 26228.81479228 .00008636 00000-0 26946-3 0 9996
2 69142 97.2858 64.4104 0001856 79.8310 280.3142 15.33452860 14901
Epoch: Aug 16, 2026 • Age: 9 hours

現在のステータス

高度 467.6 km
遠地点 / 近地点 N/A
速度 7.63 km/s
衛星直下点 6.74°N, 23.63°E
打ち上げ日 May 20, 2026
運用期間 0.2 years
タイプ internet

技術仕様

分類 Payload
質量 575.00 kg
乾燥質量 530.00 kg
総質量 575.00 kg
長さ 0.30 m
直径 4.10 m
スパン 29.00 m
形状 Box + pan
製造者 SPXS
バスタイプ Starlink V2MO
フェーズステータス In Orbit
所有者/国 SPXS/US

Most Searched